sat.trackr.live / text

‹ back to catalog

STARLINK-6235

NORAD 57094 · 2023-088AY

PAYLOAD ACTIVE UNKNOWN

§ Identity

Operator
Country
US
Launch date
2023-06-22
Launch site
AFWTR
Launch vehicle
Mass (kg)
RCS (m²)

Purposes: comms

External: N2YO · Heavens-Above · Gunter

§ Orbital elements

Epoch: 2026-09-19T21:47:44.164320Z

Period
94.27 min
Inclination
43.0021°
Eccentricity
0.0001362
Mean motion
15.27576011 rev/d
Perigee alt
482.1 km
Apogee alt
484.0 km
Semi-major
6,861.2 km
B*
9.5446e-6
RAAN
79.2647°
Arg perigee
266.7847°
Mean anomaly
93.2849°
Rev number
18,020

§ Raw data

STARLINK-62351 57094U 23088AY  26262.90815005  .00000000  00000+0  95446-5 0  99942 57094  43.0021  79.2647 0001362 266.7847  93.2849 15.27576011180205

JSON: /api/v1/satellites/57094 · /tle

For live sub-satellite position, see the globe view (requires WebGL).

§ Visibility from observer

Set your observer location to see the next 7 days of passes ≥ 10°. The values pass through the URL so the page stays shareable.

No JS? Fill the form by hand. The geolocation button needs JavaScript.